Вернуться в каталог

FLOCK 4BE 13

АктивенНаукаSSO
NORAD 60512·PAYLOAD·🇺🇸 United States

Запущен Aug 16, 2024 с Vandenberg Space Force Base

Loading…

Ближайшие Пролёты (ближайшие 24 часа)

TLE

СвежийSource: CelesTrak SupGP

Эпоха: Sep 14, 2026, 14:44 UTC

1 60512C 24149AF  26257.61416667  .00045008  00000+0  97072-3 0  2574
2 60512  97.3676 343.0814 0002992 313.6163 223.3359 15.44558857    12

Отслеживайте FLOCK 4BE 13 в реальном времени с AllMySat

Download on the App Store